Ana Sayfa
METAR-TAF:

METAR-TAF

Havaalanları :

Big Spring McMahon-Wrinkle Airport

Big Spring, Teksas, Amerika Birleşik Devletleri

Enlem: 32-12N, Boylam: 101-31W, yükseklik: 784 m

Güncel hava durumu gözlemi

Rapor saat 21:35 UTC de 22 dakika önce yapıldı.
Rüzgar batıdan 12 kt ve 21 kt'a kadar ani rüzgarlar
Sıcaklık 21°C
Nem 20%
Basınç 1009 hPa
Görüş mesafesi: 16.1 km
Açık gökyüzü

METAR: KBPG 242135Z AUTO 28012G21KT 10SM CLR 21/M03 A2981 RMK AO2 T02121031

Saat: 15:57 (21:57 UTC)


TAF: eksik

4.000'den fazla havaalanı için hava durumu gözlemleri ve tahminleri (METAR ve TAF raporları).

Kullanılabilir istasyonlar harita üzerinde sarı ve kırmızı noktalarla gösterilir.

İstasyonun adını görmek için fareyi noktanın üzerinde gezdirin.

Sonrasında hava gözlem ve tahminlerini görmek için tıklayın.

Haritayı değiştirmek için: yaklaştırmak için siyah artı işaretli yeşil düğmeye ve uzaklaştırmak için de eksi işaretli düğmeye hızla tıklayın; bitişik haritalar için yeşil okları kullanın.


METAR-TAF: